Mercury, NV

10:17 AM PDT on July 24, 2016 (GMT -0700)
Mercury

Weather History for KDRA - January, 2014

Change the Weather History Date:

Wednesday, January 8, 2014

  Actual Average Record
Temperature  
Mean Temperature 44 °F 43 °F  
Max Temperature 60 °F 55 °F 69 °F (2015)
Min Temperature 27 °F 32 °F 16 °F (1989)
Degree Days  
Heating Degree Days 22    
Cooling Degree Days 0    
Moisture  
Dew Point 12 °F    
Average Humidity 29    
Maximum Humidity 45    
Minimum Humidity 8    
Precipitation  
Precipitation 0.00 in 0.03 in 0.35 in (2001)
Month to date precipitation 0.23  
Year to date precipitation 0.23  
Sea Level Pressure  
Sea Level Pressure 30.06 in    
Wind  
Wind Speed 4 mph (ESE)    
Max Wind Speed 9 mph    
Max Gust Speed -    
Visibility 10 miles    
Events      
T = Trace of Precipitation, MM = Missing Value Source: NWS Daily Summary

Daily Weather History Graph

Daily Weather History Graph

Search for Another Location

Airport or City:

Trip Planner

Search our weather history database for the weather conditions in past years. The results will help you decide how hot, cold, wet, or windy it might be!

Date:

Astronomy

Jan. 08, 2014 Rise Set
Actual Time 6:56 AM PST 4:45 PM PST
Civil Twilight 6:28 AM PST 5:13 PM PST
Nautical Twilight 5:56 AM PST 5:45 PM PST
Astronomical Twilight 5:24 AM PST 6:17 PM PST
Moon 11:35 AM PST (1/8) 12:12 AM PST (1/8)
Length of Visible Light 10h 45m
Length of Day
9h 48m
First Quarter, 57% of the Moon is Illuminated
Jan 8
First Quarter
Jan 15
Full
Jan 23
Last Quarter
Jan 30
New
Feb 6
First Quarter

Hourly Weather History & Observations

Time (PST) Temp. Windchill Dew Point Humidity Pressure Visibility Wind Dir Wind Speed Gust Speed Precip Events Conditions
12:52 AM 32.0 °F 25.6 °F 9.0 °F 38% 30.04 in 10.0 mi East 6.9 mph - N/A   Clear
1:52 AM 32.0 °F 26.4 °F 9.0 °F 38% 30.06 in 10.0 mi East 5.8 mph - N/A   Clear
2:52 AM 30.9 °F - 8.1 °F 38% 30.05 in 10.0 mi Calm Calm - N/A   Clear
3:52 AM 30.0 °F 25.2 °F 8.1 °F 40% 30.04 in 10.0 mi East 4.6 mph - N/A   Clear
4:52 AM 28.9 °F 22.8 °F 9.0 °F 43% 30.05 in 10.0 mi East 5.8 mph - N/A   Clear
5:52 AM 27.0 °F - 8.1 °F 45% 30.07 in 10.0 mi Calm Calm - N/A   Clear
6:52 AM 28.0 °F 20.8 °F 9.0 °F 45% 30.10 in 10.0 mi East 6.9 mph - N/A   Clear
7:52 AM 35.1 °F 32.2 °F 10.0 °F 35% 30.11 in 10.0 mi ENE 3.5 mph - N/A   Clear
8:52 AM 39.9 °F - 9.0 °F 28% 30.14 in 10.0 mi Calm Calm - N/A   Clear
9:52 AM 46.9 °F - 9.0 °F 21% 30.13 in 10.0 mi Calm Calm - N/A   Clear
10:52 AM 53.1 °F - 10.0 °F 18% 30.09 in 10.0 mi Calm Calm - N/A   Clear
11:52 AM 55.9 °F - 9.0 °F 15% 30.06 in 10.0 mi West 8.1 mph - N/A   Clear
12:52 PM 57.0 °F - 10.0 °F 15% 30.02 in 10.0 mi SW 5.8 mph - N/A   Clear
1:52 PM 59.0 °F - 10.9 °F 15% 29.99 in 10.0 mi SW 8.1 mph - N/A   Clear
2:52 PM 60.1 °F - 12.0 °F 15% 29.99 in 10.0 mi SSW 6.9 mph - N/A   Clear
3:52 PM 57.9 °F - 14.0 °F 18% 29.99 in 10.0 mi Calm Calm - N/A   Clear
4:52 PM 52.0 °F - 15.1 °F 23% 30.01 in 10.0 mi SSW 4.6 mph - N/A   Clear
5:52 PM 48.0 °F - 15.1 °F 27% 30.05 in 10.0 mi ENE 3.5 mph - N/A   Clear
6:52 PM 46.9 °F - 16.0 °F 29% 30.06 in 10.0 mi East 4.6 mph - N/A   Clear
7:52 PM 44.1 °F 42.5 °F 16.0 °F 32% 30.06 in 10.0 mi WSW 3.5 mph - N/A   Clear
8:52 PM 42.1 °F 40.2 °F 16.0 °F 35% 30.08 in 10.0 mi East 3.5 mph - N/A   Clear
9:52 PM 39.9 °F 37.8 °F 16.0 °F 38% 30.07 in 10.0 mi East 3.5 mph - N/A   Clear
10:52 PM 39.9 °F 33.9 °F 17.1 °F 40% 30.04 in 10.0 mi NNE 9.2 mph - N/A   Clear
11:52 PM 36.0 °F 32.1 °F 16.0 °F 44% 30.04 in 10.0 mi NNE 4.6 mph - N/A   Clear